Simultaneous Nadir Overpasses (SNOs) Predictions

Prediction of SNOs between AQUA and NPP Satellite Orbit:

Table of predicted SNOs for the next 14.0 days since TLE Epoch: 2/24/2024
Index Date (AQUA) Time (AQUA) Lat,Lon (AQUA) SZA (AQUA ) Date (NPP) Time (NPP) Lat,Lon (NPP) SZA (NPP ) Distance(km) Time Diff (sec)
1 02/25/2024 20:23:32 81.11, 153.21 98.03 02/25/2024 20:23:11 81.11, 153.19 98.05 0.38 21
2 02/25/2024 21:12:54 -81.14, -38.69 82.05 02/25/2024 21:13:54 -81.14, -38.72 82.09 0.42 60
3 02/28/2024 09:17:42 81.12, -40.15 97.05 02/28/2024 09:17:03 81.12, -40.14 97.07 0.27 39
4 02/28/2024 10:07:04 -81.15, 127.98 83.04 02/28/2024 10:07:46 -81.14, 127.96 83.07 0.64 42
5 03/01/2024 22:11:52 81.12, 126.40 96.06 03/01/2024 22:10:56 81.12, 126.47 96.09 1.25 56
6 03/01/2024 23:01:15 -81.13, -65.81 83.98 03/01/2024 23:01:40 -81.13, -65.79 83.99 0.46 25
7 03/04/2024 11:06:01 81.12, -67.15 95.08 03/04/2024 11:04:49 81.12, -66.98 95.10 2.97 72
8 03/04/2024 11:55:24 -81.13, 100.67 84.96 03/04/2024 11:55:33 -81.13, 100.77 84.98 1.84 9



Historial Predications of SNOs between AQUA and NPP
